Location: Barletta
(41.3170°N, 16.2830°E)
Time: 18:28:43
(UTC+02:00)

ISS - Pass Details

Date: 17 May 2021
Orbit: 417 x 422 km, 51.6° (Epoch: 18 June)

Event Time Altitude Azimuth Distance (km) Brightness Sun altitude
Rises 22:02:46 0° 263° (W) 2,357 0.5 -17.7°
Reaches altitude 10° 22:05:04 10° 275° (W) 1,497 -0.3 -18.0°
Maximum altitude 22:08:00 27° 337° (NNW) 832 -1.5 -18.4°
Drops below altitude 10° 22:10:58 10° 38° (NE) 1,504 -0.8 -18.7°
Sets 22:13:16 0° 50° (NE) 2,372 0.1 -19.0°
